STARLINK-34251, 64205

Orbit data source: Space-Track

STARLINK-34251, 64205 is a payload satellite owned by SpaceX/Seattle (US) in LEO that was launched on Sat, 31 May 2025 UTC via an FALCON 9 launch vehicle from the Air Force Western Test Range (AFWTR). Payload-class satellites include a variety of spacecraft equipped with specific instruments for various scientific and technological missions. These include communications satellites like Starlink; space stations such as the ISS; scientific satellites like the Hubble; Earth observation satellites from companies like Planet Labs, Umbra, and HawkEye 360; GPS; miniature CubeSats for education and research; and military/defense satellites.

Loading next visibility...
Identifier
64205, 2025-117C
Orbit
LEO
Country
Flag of USUS
Related business
Manufacturer
SpaceX/Seattle
Mission
Operational Commercial Communications
Bus & Motor
STARLINK V2MO, Unknown motor
Mass
575 kg wet, ~530 kg dry
Launch date (UTC)
2025-05-31 (1 year ago)
Launch vehicle
FALCON 9
Launch site
Air Force Western Test Range (AFWTR)
Object type
Payload
Rocket body
Debris
Shape & HBR
Box + 1 Pan, 17.7 m
Radar Cross Section
41.120 m², Large (>1 m²)

Expand to show TLE details & history
Last TLE update: 13 hours ago

TLE from 13 hours ago
0 STARLINK-34251
1 64205U 25117C   26235.71716742  .00024984  00000-0  74788-3 0  9990
2 64205  53.1606 341.2792 0001442  90.0736 270.0432 15.34409412 70136
Epoch: 2026-08-23T17:12Z
TLE epoch observation values (Epoch: 2026-08-23T17:12:43.265Z)
Latitude
0.00001°
Longitude
111.08972°
Altitude
463.576 km
Speed
7.636 km/s
True Right ascension
22h 45m 07s
True Declination
0° 00' 00"
Sunlit
Object was in full shadow at epoch
Visualization orbit readout
Latitude
Unknown
Longitude
Unknown
Altitude
Unknown
Speed
Unknown
Apparent Right ascension
Unknown
Apparent Declination
Unknown
Sunlit
N/A
Visualization observer readout
Local Sidereal Time
21:41:46
Azimuth
Unknown
Elevation
Unknown
Doppler factor
Unknown
Orbital elements
Apogee altitude
463.919 km
Perigee altitude
461.946 km
Semi-major axis
6,841.069 km
Eccentricity
0.00014
Inclination
53.1606°
RAAN
341.2792°
Arg. of periapsis
90.0736°
True anomaly
270.02668°
Mean anomaly
270.0432°
Eccentric anomaly
270.03494°
Mean motion
3.83581 °/min
Orbital period
93.85 mins
BSTAR
0.00074788
Loading maneuver chart data...
Computing Atmospheric mass density...
Loading historical data...
Loading historical data...
Loading historical data...
Loading historical data...
Loading historical data...
Loading historical data...
Loading historical data...

Documentation

Showing up to 5 results
|